919  
ASUS41 KLWX 140611  
RWRLWX  
 
REGIONAL WEATHER ROUNDUP  
NATIONAL WEATHER SERVICE BALTIMORE MD/WASHINGTON DC  
200 AM EDT TUE AUG 14 2018  
 
NOTE: "FAIR" INDICATES FEW OR NO CLOUDS BELOW 12,000 FEET  
WITH NO SIGNIFICANT WEATHER AND/OR S TO VISIBILITY
.  
TC=TEMPERATURE CELSIUS  
 
* =NON NWS SITE. STATION DOES NOT REPORT PRECIPITATION (E.G. RAIN,  
SNOW, ETC.), THUNDER, OR FOG.
 
 
DCZ001-MDZ009-015-VAZ040>042-051-053>054-140700-  
WASHINGTON METRO  
 
CITY SKY/WX TMP DP RH WIND PRES REMARKS
 
WASHINGTON NAT FAIR 72 66 81 W8 29.93F  
DULLES MOCLDY 66 66 100 CALM 29.95F  
ANDREWS AFB FAIR 68 65 90 SW6 29.93F  
FT BELVOIR FAIR 68 66 94 CALM 29.94F  
QUANTICO FAIR 68 66 93 MISG 29.95F  
COLLEGE PARK* FAIR 70 66 88 W3 29.92F  
LEESBURG* FAIR 68 64 88 W5 29.97S  
MANASSAS* FAIR 65 64 97 CALM 29.95F  
GAITHERSBURG* FAIR 67 65 93 W3 29.96S  
 

 
 
MDZ006>007-011-014-140700-  
BALTIMORE METRO  
 
CITY SKY/WX TMP DP RH WIND PRES REMARKS
 
BWI AIRPORT MOCLDY 69 68 96 W7 29.91F  
MD SCIENCE CTR N/A 72 68 87 MISG 29.91F  
MARTIN STATE FAIR 70 70 100 CALM 29.93R  
ANNAPOLIS FAIR 72 70 93 W5 29.91F  
FORT MEADE* FAIR N/A N/A N/A CALM 29.95S  
 

 
 
MDZ012-015-019>023-140700-  
MARYLAND EASTERN SHORE  
 
CITY SKY/WX TMP DP RH WIND PRES REMARKS
 
OCEAN CITY FAIR 73 71 93 W3 29.91F  
SALISBURY FAIR 71 70 96 S3 29.91F  
BAY BRIDGE AP* FAIR 73 70 88 W6 29.91F  
CAMBRIDGE* CLEAR 70 68 94 W6 29.92F  
EASTON* FAIR 73 71 93 W3 29.95F  
 

 
 
MDZ017>025-140700-  
SOUTHERN MARYLAND  
 
CITY SKY/WX TMP DP RH WIND PRES REMARKS
 
PATUXENT RIVER FAIR 69 66 90 W7 29.93S  
ST INIGOES N/A N/A N/A N/A MISG 29.93F  
LEONARDTOWN* N/A 68 64 88 SW5 29.96S  
 

 
 
MDZ003>005-140700-  
NORTH CENTRAL MARYLAND  
 
CITY SKY/WX TMP DP RH WIND PRES REMARKS
 
FREDERICK* NOT AVBL  
HAGERSTOWN APT FAIR 68 65 90 CALM 29.95F  
WESTMINSTER* FAIR 70 64 83 W5 29.95S  
 

 
 
MDZ501>502-140700-  
WESTERN MARYLAND  
 
CITY SKY/WX TMP DP RH WIND PRES REMARKS
 
OAKLAND* FAIR 55 54 94 W6 30.07S  
CUMBERLAND* FAIR 64 64 100 CALM 30.04S  
 

 
 
VAZ025>031-140700-  
SHENANDOAH VALLEY  
 
CITY SKY/WX TMP DP RH WIND PRES REMARKS
 
WINCHESTER* FAIR 64 61 88 SW3 29.99F  
FRONT ROYAL* FAIR 63 63 100 S6 29.99S  
LURAY* FAIR 63 61 94 CALM 30.00F  
NEW MARKET* FAIR 62 60 96 CALM 29.99F  
STAUNTON* FAIR 59 59 99 CALM 30.05S  
WAYNESBORO* FAIR 61 60 95 W5 30.03F  
 

 
 
WVZ021-048>050-054>055-140700-  
EASTERN WEST VIRGINIA PANHANDLE  
 
CITY SKY/WX TMP DP RH WIND PRES REMARKS
 
MARTINSBURG FAIR 65 64 97 S5 29.96S  
PETERSBURG* FOG 60 59 99 CALM 30.02S VSB 1/4  
 

 
 
VAZ036>039-050-140700-  
CENTRAL FOOTHILLS  
 
CITY SKY/WX TMP DP RH WIND PRES REMARKS
 
CHARLOTTESVILL FAIR 65 62 90 CALM 29.98F  
CULPEPER* FAIR 65 63 96 CALM 29.97F FOG  
ORANGE* FAIR 64 61 88 SW3 29.97S  
GORDONSVILLE* FAIR 62 62 100 CALM 29.97S  
WARRENTON* FOG 66 63 91 CALM 29.95F VSB 1/4  
 

 
 
VAZ055>057-140700-  
NORTH AND CENTRAL PIEDMONT  
 
CITY SKY/WX TMP DP RH WIND PRES REMARKS
 
FREDERICKSBRG* FAIR 66 66 100 CALM 29.95F  
STAFFORD* FAIR 65 65 100 CALM 30.00S  
 

 
 
NCZ024-NYZ072-PAZ021-071-VAZ022-071-140700-  
OTHER REGIONAL OBSERVATIONS  
 
CITY SKY/WX TMP DP RH WIND PRES REMARKS
 
NEW YORK CITY MOCLDY 73 71 93 CALM 29.91F FOG  
PHILADELPHIA MOCLDY 72 66 81 SW8 29.90S  
PITTSBURGH MOCLDY 62 62 100 SW3 30.01S  
ROANOKE FAIR 64 61 90 NW3 30.06F  
RICHMOND FAIR 65 63 93 SW3 29.97S  
RALEIGH LGT RAIN 67 66 97 CALM 30.01F  
 

 
 
ANZ530>537-140700-  
MARINE OBSERVATIONS  
 
STATION/POSITION TIME TEMP WIND PRES
 
AIR SEA DIR/SP/G  
(UTC) (F) (DEG/KT/KT) (MB)  
THOMAS PT LIGHT 0600 72 83 260/ 10/ 11 1013.9F  
BALT KEY BRIDGE 0548 72 250/ 9/ 10 1012.7F  
COVE POINT 0548 70 270/ 10/ 14 1013.9F  
LEWISETTA 0530 69 84 230/ 8/ 9 1014.0R  
SOLOMONS ISLAND 0548 71 84 290/ 3/ 5 1013.6S  
PINEY POINT 0542 280/ 10/ 12 N/A  
 

 
 
 
 
CLICK HERE TO GO TO PREVIOUS BULLETINS.

The Nexlab VA Page
The Nexlab MD Page
The Nexlab WV Page Main Text Page